�������l�o���
Date,Time,MP-1(��Sv/h),MP-2(��Sv/h),MP-3(��Sv/h),MP-4(��Sv/h),MP-5(��Sv/h),MP-6(��Sv/h),MP-7(��Sv/h),MP-8(��Sv/h),����,����(m/s),���J
2020/09/11,00:00,0.693,0.991,0.627,1.213,0.880,0.394,0.687,0.643,���쐼,1.2,��
2020/09/11,00:10,0.693,0.989,0.626,1.213,0.879,0.393,0.687,0.643,��,0.6,��
2020/09/11,00:20,0.697,0.991,0.628,1.213,0.881,0.395,0.686,0.644,�k�k��,0.6,��
2020/09/11,00:30,0.694,0.990,0.625,1.213,0.881,0.393,0.687,0.644,�k,2.6,��
2020/09/11,00:40,0.694,0.990,0.626,1.213,0.881,0.395,0.687,0.643,�k,2.6,��
2020/09/11,00:50,0.693,0.989,0.627,1.209,0.880,0.395,0.687,0.645,�k�k��,3.1,��
2020/09/11,01:00,0.693,0.991,0.627,1.214,0.880,0.395,0.687,0.644,�k�k��,3.1,��
2020/09/11,01:10,0.695,0.992,0.627,1.211,0.881,0.393,0.687,0.643,�k,3.3,��
2020/09/11,01:20,0.694,0.990,0.626,1.212,0.880,0.394,0.687,0.644,�k,3.4,��
2020/09/11,01:30,0.693,0.988,0.626,1.213,0.881,0.394,0.688,0.644,�k�k��,3.7,��
2020/09/11,01:40,0.693,0.993,0.626,1.213,0.880,0.394,0.687,0.643,�k�k��,4.3,��
2020/09/11,01:50,0.693,0.992,0.627,1.214,0.880,0.394,0.687,0.642,�k,4.2,��
2020/09/11,02:00,0.695,0.988,0.626,1.211,0.879,0.393,0.686,0.645,�k,3.9,��
2020/09/11,02:10,0.694,0.988,0.625,1.213,0.878,0.393,0.687,0.643,�k,3.7,��
2020/09/11,02:20,0.692,0.989,0.626,1.212,0.880,0.392,0.686,0.643,�k,3.8,��
2020/09/11,02:30,0.691,0.988,0.626,1.210,0.881,0.394,0.686,0.643,�k,3.6,��
2020/09/11,02:40,0.691,0.987,0.625,1.212,0.880,0.393,0.686,0.643,�k,4.2,��
2020/09/11,02:50,0.693,0.991,0.625,1.209,0.879,0.392,0.688,0.645,�k,4.2,��
2020/09/11,03:00,0.692,0.989,0.624,1.210,0.879,0.392,0.687,0.643,�k�k��,4.1,��
2020/09/11,03:10,0.694,0.987,0.626,1.211,0.878,0.391,0.686,0.644,�k�k��,4.5,��
2020/09/11,03:20,0.693,0.988,0.626,1.212,0.879,0.392,0.687,0.644,�k�k��,3.9,��
2020/09/11,03:30,0.693,0.988,0.627,1.213,0.879,0.392,0.686,0.644,�k�k��,4.4,��
2020/09/11,03:40,0.692,0.988,0.624,1.210,0.879,0.391,0.686,0.643,�k�k��,4.6,��
2020/09/11,03:50,0.691,0.989,0.625,1.210,0.878,0.392,0.686,0.645,�k�k��,4.5,��
2020/09/11,04:00,0.690,0.988,0.628,1.212,0.878,0.393,0.686,0.643,�k�k��,4.5,��
2020/09/11,04:10,0.691,0.989,0.625,1.212,0.878,0.392,0.685,0.644,�k�k��,4.0,��
2020/09/11,04:20,0.692,0.988,0.627,1.210,0.879,0.393,0.687,0.642,�k�k��,3.1,��
2020/09/11,04:30,0.691,0.986,0.626,1.214,0.879,0.392,0.687,0.645,�k�k��,2.6,��
2020/09/11,04:40,0.693,0.988,0.626,1.210,0.879,0.392,0.686,0.644,�k�k��,2.9,��
2020/09/11,04:50,0.692,0.987,0.626,1.211,0.877,0.392,0.686,0.644,�k�k��,3.0,��
2020/09/11,05:00,0.692,0.987,0.624,1.212,0.877,0.392,0.685,0.644,�k�k��,3.4,��
2020/09/11,05:10,0.691,0.988,0.625,1.213,0.877,0.391,0.684,0.644,�k�k��,3.6,��
2020/09/11,05:20,0.692,0.987,0.625,1.214,0.879,0.392,0.686,0.644,�k�k��,4.2,��
2020/09/11,05:30,0.691,0.987,0.624,1.211,0.878,0.392,0.685,0.642,�k�k��,4.0,��
2020/09/11,05:40,0.691,0.987,0.625,1.209,0.877,0.391,0.687,0.645,�k�k��,3.7,��
2020/09/11,05:50,0.693,0.986,0.624,1.211,0.878,0.391,0.686,0.643,�k�k��,2.9,��
2020/09/11,06:00,0.691,0.986,0.625,1.212,0.877,0.391,0.686,0.642,�k�k��,3.4,��
2020/09/11,06:10,0.691,0.989,0.624,1.213,0.877,0.391,0.686,0.643,�k�k��,3.5,��
2020/09/11,06:20,0.691,0.987,0.623,1.213,0.879,0.391,0.686,0.644,�k�k��,3.5,��
2020/09/11,06:30,0.692,0.989,0.625,1.213,0.878,0.391,0.686,0.644,�k�k��,3.8,��
2020/09/11,06:40,0.690,0.988,0.623,1.213,0.878,0.391,0.687,0.642,�k�k��,4.4,��
2020/09/11,06:50,0.692,0.986,0.624,1.210,0.876,0.392,0.686,0.645,�k�k��,4.8,��
2020/09/11,07:00,0.692,0.988,0.624,1.210,0.875,0.392,0.686,0.644,�k�k��,3.4,��
2020/09/11,07:10,0.692,0.986,0.623,1.212,0.875,0.392,0.686,0.644,�k,3.1,��
2020/09/11,07:20,0.694,0.990,0.625,1.213,0.879,0.392,0.684,0.644,�k�k��,2.8,��
2020/09/11,07:30,0.690,0.986,0.623,1.213,0.877,0.391,0.687,0.645,�k,2.8,��
2020/09/11,07:40,0.692,0.986,0.625,1.213,0.879,0.389,0.686,0.645,�k�k��,2.3,��
2020/09/11,07:50,0.692,0.987,0.626,1.213,0.877,0.391,0.687,0.644,�k,2.0,��
2020/09/11,08:00,0.693,0.986,0.628,1.211,0.879,0.391,0.687,0.643,�k�k��,2.5,��
2020/09/11,08:10,0.693,0.986,0.627,1.211,0.878,0.392,0.685,0.644,�k,1.4,��
2020/09/11,08:20,0.693,0.986,0.626,1.211,0.879,0.390,0.686,0.644,���k��,2.2,��
2020/09/11,08:30,0.691,0.985,0.627,1.213,0.880,0.391,0.688,0.644,�k��,2.3,��
2020/09/11,08:40,0.693,0.985,0.627,1.212,0.880,0.390,0.686,0.645,�k��,2.5,��
2020/09/11,08:50,0.693,0.985,0.626,1.211,0.879,0.391,0.687,0.645,�k��,3.1,��
2020/09/11,09:00,0.692,0.985,0.628,1.211,0.878,0.392,0.687,0.642,�k�k��,3.5,��
2020/09/11,09:10,0.695,0.983,0.626,1.212,0.880,0.391,0.687,0.641,�k�k��,4.0,��
2020/09/11,09:20,0.694,0.979,0.626,1.214,0.879,0.391,0.687,0.642,�k��,3.5,��
2020/09/11,09:30,0.691,0.979,0.625,1.213,0.880,0.390,0.685,0.642,�k��,3.9,��
2020/09/11,09:40,0.693,0.980,0.626,1.213,0.878,0.392,0.688,0.641,�k��,4.0,��
2020/09/11,09:50,0.694,0.980,0.626,1.211,0.879,0.392,0.685,0.643,�k�k��,4.4,��
2020/09/11,10:00,0.692,0.982,0.625,1.214,0.878,0.392,0.687,0.643,�k�k��,3.9,��
2020/09/11,10:10,0.693,0.978,0.625,1.215,0.879,0.391,0.687,0.643,�k�k��,4.2,��
2020/09/11,10:20,0.693,0.983,0.628,1.214,0.879,0.391,0.686,0.642,�k��,4.0,��
2020/09/11,10:30,0.693,0.984,0.631,1.216,0.880,0.391,0.686,0.642,�k�k��,4.3,��
2020/09/11,10:40,0.693,0.980,0.632,1.216,0.880,0.391,0.686,0.642,�k�k��,4.7,��
2020/09/11,10:50,0.692,0.981,0.627,1.214,0.880,0.391,0.687,0.641,�k�k��,4.9,��
2020/09/11,11:00,0.692,0.982,0.626,1.215,0.881,0.391,0.685,0.642,�k�k��,5.0,��
2020/09/11,11:10,0.692,0.984,0.627,1.215,0.881,0.392,0.685,0.643,�k��,4.9,��
2020/09/11,11:20,0.693,0.982,0.624,1.216,0.881,0.391,0.687,0.641,�k�k��,5.1,��
2020/09/11,11:30,0.693,0.983,0.626,1.215,0.881,0.392,0.685,0.642,�k�k��,4.9,�L
2020/09/11,11:40,0.694,0.982,0.625,1.214,0.883,0.391,0.686,0.642,�k�k��,4.5,�L
2020/09/11,11:50,0.693,0.988,0.627,1.215,0.881,0.393,0.687,0.641,�k�k��,4.8,��
2020/09/11,12:00,0.693,0.990,0.628,1.216,0.881,0.392,0.686,0.641,�k�k��,5.2,��
2020/09/11,12:10,0.693,0.989,0.628,1.214,0.879,0.390,0.687,0.640,�k�k��,5.3,��
2020/09/11,12:20,0.691,0.988,0.626,1.214,0.881,0.391,0.686,0.643,�k�k��,5.8,��
2020/09/11,12:30,0.694,0.988,0.627,1.216,0.881,0.392,0.686,0.640,�k�k��,5.3,��
2020/09/11,12:40,0.691,0.987,0.629,1.217,0.881,0.390,0.686,0.643,�k�k��,5.0,��
2020/09/11,12:50,0.693,0.987,0.628,1.214,0.878,0.392,0.687,0.642,�k�k��,4.8,��
2020/09/11,13:00,0.693,0.985,0.629,1.214,0.883,0.392,0.686,0.641,�k�k��,4.2,�L
2020/09/11,13:10,0.694,0.987,0.628,1.215,0.879,0.391,0.685,0.642,�k�k��,4.9,�L
2020/09/11,13:20,0.691,0.985,0.626,1.215,0.882,0.391,0.686,0.641,�k�k��,4.8,��
2020/09/11,13:30,0.692,0.985,0.628,1.215,0.882,0.389,0.685,0.642,�k�k��,4.6,��
2020/09/11,13:40,0.693,0.985,0.626,1.216,0.880,0.390,0.686,0.643,�k�k��,4.6,��
2020/09/11,13:50,0.692,0.983,0.625,1.216,0.882,0.393,0.685,0.641,�k��,4.0,��
2020/09/11,14:00,0.691,0.983,0.627,1.216,0.882,0.391,0.686,0.641,�k��,4.5,��
2020/09/11,14:10,0.691,0.984,0.627,1.213,0.885,0.390,0.686,0.643,�k��,4.5,��
2020/09/11,14:20,0.692,0.981,0.629,1.214,0.883,0.392,0.686,0.643,�k��,4.4,�L
2020/09/11,14:30,0.692,0.983,0.629,1.214,0.882,0.391,0.688,0.641,�k��,4.3,�L
2020/09/11,14:40,0.689,0.984,0.629,1.214,0.882,0.392,0.686,0.645,�k��,3.8,�L
2020/09/11,14:50,0.689,0.987,0.629,1.213,0.881,0.392,0.687,0.644,�k��,4.0,�L
2020/09/11,15:00,0.690,0.986,0.627,1.214,0.882,0.392,0.686,0.644,�k��,4.0,�L
2020/09/11,15:10,0.690,0.989,0.628,1.217,0.880,0.392,0.687,0.642,�k��,4.0,��
2020/09/11,15:20,0.692,0.991,0.628,1.215,0.880,0.391,0.686,0.644,�k��,3.5,��
2020/09/11,15:30,0.692,0.991,0.629,1.215,0.883,0.391,0.687,0.646,�k�k��,3.6,��
2020/09/11,15:40,0.691,0.990,0.630,1.216,0.880,0.390,0.686,0.643,�k��,3.0,��
2020/09/11,15:50,0.691,0.989,0.629,1.213,0.883,0.391,0.686,0.642,�k��,3.4,��
2020/09/11,16:00,0.691,0.992,0.626,1.215,0.880,0.390,0.687,0.643,�k��,3.4,��
2020/09/11,16:10,0.691,0.991,0.628,1.215,0.878,0.391,0.688,0.644,�k��,3.3,��
2020/09/11,16:20,0.690,0.988,0.631,1.213,0.879,0.389,0.686,0.644,�k��,2.9,��
2020/09/11,16:30,0.692,0.990,0.629,1.214,0.879,0.391,0.686,0.645,���k��,3.5,��
2020/09/11,16:40,0.691,0.991,0.630,1.214,0.881,0.390,0.686,0.643,�k��,3.0,��
2020/09/11,16:50,0.690,0.988,0.628,1.216,0.878,0.389,0.687,0.645,�k��,3.0,��
2020/09/11,17:00,0.692,0.989,0.627,1.216,0.880,0.390,0.687,0.645,�k��,3.3,��
2020/09/11,17:10,0.691,0.991,0.629,1.216,0.878,0.390,0.687,0.645,�k��,2.9,��
2020/09/11,17:20,0.691,0.989,0.628,1.215,0.880,0.389,0.686,0.643,�k�k��,2.3,��
2020/09/11,17:30,0.691,0.988,0.630,1.214,0.878,0.389,0.688,0.644,�k�k��,2.3,��
2020/09/11,17:40,0.691,0.991,0.629,1.216,0.879,0.392,0.686,0.645,�k�k��,2.8,�L
2020/09/11,17:50,0.692,0.988,0.628,1.215,0.880,0.391,0.688,0.645,�k�k��,2.9,��
2020/09/11,18:00,0.693,0.988,0.630,1.215,0.878,0.392,0.687,0.644,�k�k��,2.8,��
2020/09/11,18:10,0.692,0.992,0.630,1.215,0.881,0.390,0.686,0.645,�k�k��,2.6,��
2020/09/11,18:20,0.691,0.987,0.628,1.216,0.882,0.390,0.685,0.644,�k�k��,3.7,��
2020/09/11,18:30,0.691,0.991,0.630,1.213,0.882,0.391,0.686,0.644,�k�k��,3.9,��
2020/09/11,18:40,0.691,0.990,0.629,1.215,0.881,0.391,0.686,0.644,�k�k��,4.0,��
2020/09/11,18:50,0.692,0.988,0.628,1.214,0.881,0.391,0.686,0.644,�k�k��,3.6,��
2020/09/11,19:00,0.692,0.992,0.630,1.215,0.881,0.392,0.688,0.644,�k,3.3,��
2020/09/11,19:10,0.691,0.990,0.629,1.213,0.881,0.390,0.687,0.644,�k,3.4,��
2020/09/11,19:20,0.691,0.991,0.628,1.214,0.880,0.391,0.688,0.644,�k�k��,3.0,�L
2020/09/11,19:30,0.692,0.987,0.629,1.215,0.878,0.392,0.686,0.645,�k�k��,2.8,��
2020/09/11,19:40,0.692,0.991,0.629,1.213,0.880,0.391,0.688,0.644,�k�k��,2.6,��
2020/09/11,19:50,0.692,0.990,0.631,1.215,0.881,0.390,0.686,0.646,�k�k��,3.3,�L
2020/09/11,20:00,0.690,0.991,0.629,1.217,0.880,0.391,0.687,0.645,�k��,2.6,�L
2020/09/11,20:10,0.690,0.992,0.628,1.214,0.880,0.391,0.687,0.642,�k�k��,3.1,�L
2020/09/11,20:20,0.691,0.989,0.630,1.215,0.881,0.391,0.686,0.643,�k�k��,3.2,�L
2020/09/11,20:30,0.692,0.991,0.631,1.212,0.880,0.391,0.686,0.643,�k�k��,3.5,�L
2020/09/11,20:40,0.691,0.990,0.628,1.217,0.878,0.391,0.688,0.644,�k��,3.0,�L
2020/09/11,20:50,0.690,0.991,0.629,1.215,0.876,0.391,0.687,0.642,�k��,2.3,�L
2020/09/11,21:00,0.690,0.986,0.626,1.213,0.873,0.392,0.685,0.641,�k�k��,2.9,�L
2020/09/11,21:10,0.686,0.980,0.624,1.205,0.867,0.390,0.681,0.638,�k��,2.6,�L
2020/09/11,21:20,0.680,0.974,0.622,1.200,0.861,0.387,0.673,0.630,��,3.5,�L
2020/09/11,21:30,0.668,0.962,0.617,1.186,0.849,0.385,0.665,0.621,��쓌,2.0,�L
2020/09/11,21:40,0.646,0.946,0.607,1.163,0.835,0.380,0.661,0.613,�쓌,2.5,�L
2020/09/11,21:50,0.642,0.928,0.605,1.157,0.839,0.380,0.660,0.616,��,4.2,�L
2020/09/11,22:00,0.651,0.931,0.605,1.155,0.834,0.379,0.661,0.619,�k��,4.3,�L
2020/09/11,22:10,0.657,0.928,0.603,1.154,0.833,0.381,0.663,0.624,�k�k��,4.9,�L
2020/09/11,22:20,0.661,0.932,0.603,1.155,0.833,0.383,0.666,0.623,�k�k��,3.2,�L
2020/09/11,22:30,0.661,0.935,0.604,1.157,0.837,0.382,0.666,0.625,�k,3.0,�L
2020/09/11,22:40,0.662,0.935,0.606,1.159,0.836,0.381,0.666,0.625,�k,2.6,�L
2020/09/11,22:50,0.664,0.936,0.605,1.159,0.838,0.383,0.666,0.625,�k�k��,3.7,��
2020/09/11,23:00,0.663,0.937,0.605,1.158,0.837,0.382,0.666,0.626,�k�k��,3.2,�L
2020/09/11,23:10,0.662,0.936,0.603,1.160,0.836,0.382,0.668,0.626,�k,3.3,��
2020/09/11,23:20,0.663,0.934,0.604,1.158,0.838,0.380,0.667,0.624,�k,2.3,��
2020/09/11,23:30,0.661,0.936,0.604,1.159,0.837,0.382,0.665,0.624,�k,1.5,��
2020/09/11,23:40,0.661,0.935,0.606,1.161,0.837,0.382,0.666,0.626,�k�k��,3.3,��
2020/09/11,23:50,0.663,0.938,0.605,1.161,0.838,0.379,0.667,0.627,�k�k��,3.7,��
